W0WC Weather Reports


time (UTC)temp
F
wind
direction
speed
knots
gust
knots
rain 1hr
in
rain 24hr
in
rain mn
in
humidity
%
barometer
mb
20260902063232 86 319 1.7 1.7 0.00 0.00 0.00 53 1016.4
20260902062731 85 195 4.3 5.2 0.00 0.00 0.00 54 1016.6
20260902062226 85 127 5.2 9.6 0.00 0.00 0.00 54 1016.7
20260902061725 85 147 1.7 2.6 0.00 0.00 0.00 54 1016.5
20260902061221 85 174 3.5 3.5 0.00 0.00 0.00 54 1016.7
20260902060717 85 92 2.6 2.6 0.00 0.00 0.00 54 1016.5
20260902060213 85 300 0.9 0.9 0.00 0.00 0.00 54 1016.5
20260902055709 85 81 3.5 5.2 0.00 0.00 0.00 53 1016.5
20260902055204 85 157 3.5 5.2 0.00 0.00 0.00 53 1016.5
20260902054659 85 118 2.6 2.6 0.00 0.00 0.00 53 1016.5
20260902054155 85 48 0.9 1.7 0.00 0.00 0.00 53 1016.3
20260902053650 85 95 2.6 3.5 0.00 0.00 0.00 53 1016.5
20260902053150 85 137 2.6 3.5 0.00 0.00 0.00 52 1016.6
20260902052649 85 158 1.7 1.7 0.00 0.00 0.00 52 1016.5
20260902052145 85 77 2.6 2.6 0.00 0.00 0.00 52 1016.6
20260902051644 85 348 0.0 0.9 0.00 0.00 0.00 53 1016.7
20260902051139 85 80 0.9 0.9 0.00 0.00 0.00 52 1016.6
20260902050633 85 43 0.0 0.0 0.00 0.00 0.00 52 1016.7
20260902050129 85 8 0.9 0.9 0.00 0.00 0.00 52 1016.6
20260902045624 85 92 0.9 1.7 0.00 0.00 0.00 52 1016.7
20260902045120 85 22 0.0 0.9 0.00 0.00 0.00 52 1016.6
20260902044615 85 10 1.7 1.7 0.00 0.00 0.00 51 1016.6
20260902044111 86 172 0.9 0.9 0.00 0.00 0.00 51 1016.6
20260902043606 86 138 1.7 1.7 0.00 0.00 0.00 51 1016.6
20260902043106 86 143 0.9 1.7 0.00 0.00 0.00 50 1016.5
20260902042600 86 182 2.6 2.6 0.00 0.00 0.00 50 1016.4
20260902042055 86 142 2.6 3.5 0.00 0.00 0.00 49 1016.4
20260902041554 87 196 3.5 3.5 0.00 0.00 0.00 49 1016.3
20260902041049 87 79 3.5 5.2 0.00 0.00 0.00 49 1016.1
20260902040543 87 18 0.0 0.9 0.00 0.00 0.00 48 1016.4
20260902040038 87 142 4.3 5.2 0.00 0.00 0.00 47 1016.2
20260902035531 88 179 3.5 3.5 0.00 0.00 0.00 47 1016.4
20260902035027 88 131 3.5 3.5 0.00 0.00 0.00 46 1016.3
20260902034526 89 45 2.6 2.6 0.00 0.00 0.00 46 1016.1
20260902034025 89 35 0.9 1.7 0.00 0.00 0.00 45 1016.2
20260902033525 89 20 1.7 1.7 0.00 0.00 0.00 45 1016.3
20260902033020 89 45 1.7 1.7 0.00 0.00 0.00 45 1016.4
20260902032513 89 82 2.6 3.5 0.00 0.00 0.00 45 1016.1
20260902032009 89 95 2.6 2.6 0.00 0.00 0.00 45 1016.0
20260902031508 89 57 0.9 0.9 0.00 0.00 0.00 45 1016.2
20260902031005 89 70 2.6 3.5 0.00 0.00 0.00 45 1015.8
20260902030505 89 59 1.7 1.7 0.00 0.00 0.00 44 1015.8
20260902030004 90 36 1.7 1.7 0.00 0.00 0.00 44 1015.8
20260902025459 90 46 0.9 0.9 0.00 0.00 0.00 44 1015.8
20260902024954 90 28 0.0 0.0 0.00 0.00 0.00 44 1015.8
20260902024450 90 311 1.7 1.7 0.00 0.00 0.00 44 1015.7
20260902023949 90 46 0.0 0.0 0.00 0.00 0.00 44 1015.7
20260902023446 90 123 1.7 2.6 0.00 0.00 0.00 43 1015.7
20260902022945 90 22 0.0 0.9 0.00 0.00 0.00 43 1015.4
20260902022440 91 23 0.0 0.0 0.00 0.00 0.00 43 1015.5
20260902021936 91 33 0.0 0.9 0.00 0.00 0.00 42 1015.3
20260902021436 91 22 0.0 0.9 0.00 0.00 0.00 42 1015.3
20260902020932 91 50 0.9 1.7 0.00 0.00 0.00 41 1015.2
20260902020429 91 21 0.0 0.0 0.00 0.00 0.00 42 1015.3
20260902015924 91 92 1.7 1.7 0.00 0.00 0.00 42 1015.2
20260902015420 91 26 0.0 0.9 0.00 0.00 0.00 42 1015.1
20260902014915 91 24 0.0 0.0 0.00 0.00 0.00 42 1015.1
20260902014412 92 20 0.0 0.0 0.00 0.00 0.00 42 1015.1
20260902013910 92 13 0.0 0.0 0.00 0.00 0.00 41 1014.9
20260902013406 93 359 0.0 0.0 0.00 0.00 0.00 41 1015.0
20260902012901 93 8 0.0 0.9 0.00 0.00 0.00 39 1014.9
20260902012357 93 328 0.0 0.9 0.00 0.00 0.00 39 1015.0
20260902011853 93 10 0.0 0.0 0.00 0.00 0.00 39 1014.9
20260902011353 93 57 0.9 0.9 0.00 0.00 0.00 39 1014.9
20260902010852 93 23 0.0 0.9 0.00 0.00 0.00 38 1014.9
20260902010347 94 19 0.0 0.0 0.00 0.00 0.00 38 1014.7
20260902005846 94 13 0.0 0.9 0.00 0.00 0.00 38 1014.8
20260902005340 94 7 0.0 0.0 0.00 0.00 0.00 38 1014.8
20260902004836 95 9 0.0 0.0 0.00 0.00 0.00 37 1014.8
20260902004336 95 42 0.0 0.0 0.00 0.00 0.00 37 1014.7
20260902003831 95 57 0.0 0.9 0.00 0.00 0.00 37 1014.8
20260902003326 96 4 0.0 0.9 0.00 0.00 0.00 36 1014.9
20260902002822 96 2 0.9 0.9 0.00 0.00 0.00 35 1014.9
20260902002321 96 26 0.9 0.9 0.00 0.00 0.00 35 1014.9
20260902001817 97 182 2.6 2.6 0.00 0.00 0.00 35 1014.8
20260902001312 97 54 0.9 0.9 0.00 0.00 0.00 34 1014.8
20260902000812 97 13 1.7 1.7 0.00 0.00 0.00 34 1015.1
20260902000307 97 98 2.6 2.6 0.00 0.00 0.00 34 1014.9
20260901235802 97 6 0.0 0.9 0.00 0.00 0.00 34 1014.9
20260901235256 98 169 3.5 3.5 0.00 0.00 0.00 34 1014.9
20260901234756 99 101 1.7 2.6 0.00 0.00 0.00 33 1015.1
20260901234251 99 236 0.9 1.7 0.00 0.00 0.00 33 1015.0
20260901233746 99 228 3.5 3.5 0.00 0.00 0.00 33 1015.1
20260901233242 99 356 0.9 0.9 0.00 0.00 0.00 33 1015.2
20260901232742 99 196 2.6 3.5 0.00 0.00 0.00 33 1015.2
20260901232237 99 266 2.6 2.6 0.00 0.00 0.00 33 1015.2
20260901231734 99 307 1.7 1.7 0.00 0.00 0.00 33 1015.3
20260901231230 99 193 3.5 5.2 0.00 0.00 0.00 33 1015.1
20260901230726 99 224 1.7 5.2 0.00 0.00 0.00 33 1015.4
20260901230225 100 290 1.7 1.7 0.00 0.00 0.00 32 1015.2
20260901225720 100 194 5.2 6.1 0.00 0.00 0.00 31 1015.2
20260901225214 100 122 5.2 7.0 0.00 0.00 0.00 32 1015.3
20260901224711 99 9 0.0 0.9 0.00 0.00 0.00 33 1015.4
20260901224206 98 33 0.9 1.7 0.00 0.00 0.00 33 1015.4
20260901223702 98 160 2.6 2.6 0.00 0.00 0.00 34 1015.4
20260901223157 99 214 1.7 3.5 0.00 0.00 0.00 33 1015.4
20260901222653 100 162 3.5 3.5 0.00 0.00 0.00 32 1015.3
20260901222149 99 196 1.7 2.6 0.00 0.00 0.00 33 1015.4
20260901221645 99 84 3.5 5.2 0.00 0.00 0.00 32 1015.3
20260901221141 99 92 1.7 1.7 0.00 0.00 0.00 33 1015.2
20260901220639 99 189 3.5 5.2 0.00 0.00 0.00 32 1015.4
20260901220139 100 104 1.7 3.5 0.00 0.00 0.00 32 1015.2
20260901215637 101 346 1.7 2.6 0.00 0.00 0.00 31 1015.4
20260901215132 100 84 1.7 3.5 0.00 0.00 0.00 31 1015.5
20260901214630 100 109 1.7 2.6 0.00 0.00 0.00 32 1015.4
20260901214125 100 115 2.6 2.6 0.00 0.00 0.00 32 1015.3
20260901213624 101 101 5.2 7.8 0.00 0.00 0.00 31 1015.3
20260901213119 100 79 1.7 1.7 0.00 0.00 0.00 32 1015.3
20260901212619 100 99 4.3 6.1 0.00 0.00 0.00 32 1015.3
20260901212115 100 109 1.7 2.6 0.00 0.00 0.00 33 1015.4
20260901211610 100 96 2.6 2.6 0.00 0.00 0.00 33 1015.5
20260901211107 100 155 3.5 3.5 0.00 0.00 0.00 32 1015.5
20260901210601 101 136 2.6 3.5 0.00 0.00 0.00 32 1015.5
20260901210058 102 189 2.6 3.5 0.00 0.00 0.00 30 1015.9
20260901205554 102 337 2.6 2.6 0.00 0.00 0.00 31 1015.9
20260901205053 102 196 3.5 3.5 0.00 0.00 0.00 31 1015.8
20260901204549 102 199 5.2 7.0 0.00 0.00 0.00 31 1015.9
20260901204044 102 272 4.3 7.0 0.00 0.00 0.00 31 1015.9
20260901203544 102 202 6.1 7.0 0.00 0.00 0.00 31 1015.9
20260901203039 101 96 0.9 1.7 0.00 0.00 0.00 32 1016.1
20260901202534 101 155 4.3 6.1 0.00 0.00 0.00 31 1016.2
20260901202030 100 280 2.6 2.6 0.00 0.00 0.00 32 1016.3
20260901201525 99 13 0.0 0.9 0.00 0.00 0.00 33 1016.2
20260901201020 100 50 4.3 7.0 0.00 0.00 0.00 33 1016.3
20260901200519 100 63 1.7 1.7 0.00 0.00 0.00 33 1016.3
20260901200019 101 351 1.7 2.6 0.00 0.00 0.00 32 1016.2
20260901195517 100 275 1.7 1.7 0.00 0.00 0.00 33 1016.4
20260901195017 101 39 0.9 1.7 0.00 0.00 0.00 33 1016.6
20260901194512 100 337 1.7 1.7 0.00 0.00 0.00 33 1016.4
20260901194008 100 219 4.3 5.2 0.00 0.00 0.00 33 1016.7
20260901193507 99 185 1.7 2.6 0.00 0.00 0.00 34 1016.8
20260901193002 99 162 4.3 5.2 0.00 0.00 0.00 33 1016.7
20260901192457 99 3 1.7 1.7 0.00 0.00 0.00 34 1016.9
20260901191954 99 24 0.9 0.9 0.00 0.00 0.00 34 1017.0
20260901191449 99 222 1.7 1.7 0.00 0.00 0.00 34 1017.0
20260901190945 99 304 2.6 2.6 0.00 0.00 0.00 34 1017.0
20260901190440 100 230 6.1 7.8 0.00 0.00 0.00 33 1016.9
20260901185937 98 31 0.0 0.0 0.00 0.00 0.00 35 1017.0
20260901185437 99 99 3.5 3.5 0.00 0.00 0.00 35 1017.4
20260901184937 99 177 1.7 1.7 0.00 0.00 0.00 35 1017.2
20260901184432 100 219 4.3 6.1 0.00 0.00 0.00 34 1017.2
20260901183927 100 358 1.7 2.6 0.00 0.00 0.00 35 1017.4
20260901183427 98 289 3.5 5.2 0.00 0.00 0.00 35 1017.4
20260901182923 98 9 0.0 0.9 0.00 0.00 0.00 36 1017.6
20260901182418 98 8 0.9 0.9 0.00 0.00 0.00 35 1017.6
20260901181913 99 343 1.7 2.6 0.00 0.00 0.00 35 1017.9
20260901181409 98 79 3.5 5.2 0.00 0.00 0.00 36 1017.6
20260901180907 98 354 1.7 1.7 0.00 0.00 0.00 36 1017.9
20260901180406 99 277 3.5 3.5 0.00 0.00 0.00 36 1017.8
20260901175905 98 329 0.9 1.7 0.00 0.00 0.00 37 1017.9
20260901175359 98 236 0.9 2.6 0.00 0.00 0.00 37 1018.1
20260901174855 98 280 0.9 1.7 0.00 0.00 0.00 38 1018.3
20260901174351 97 232 0.9 1.7 0.00 0.00 0.00 38 1018.5
20260901173846 97 260 6.1 8.7 0.00 0.00 0.00 38 1018.2
20260901173341 97 162 5.2 7.0 0.00 0.00 0.00 39 1018.4
20260901172837 97 308 1.7 2.6 0.00 0.00 0.00 40 1018.6
20260901172336 96 197 5.2 6.1 0.00 0.00 0.00 39 1018.5
20260901171835 96 150 2.6 5.2 0.00 0.00 0.00 41 1018.7
20260901171334 97 218 5.2 7.0 0.00 0.00 0.00 41 1018.8
20260901170833 97 5 0.9 1.7 0.00 0.00 0.00 41 1018.9
20260901170328 97 207 2.6 5.2 0.00 0.00 0.00 41 1018.8
20260901165827 97 338 1.7 1.7 0.00 0.00 0.00 40 1019.0
20260901165321 95 25 2.6 3.5 0.00 0.00 0.00 42 1019.0
20260901164818 96 273 2.6 3.5 0.00 0.00 0.00 43 1019.0
20260901164313 96 101 3.5 3.5 0.00 0.00 0.00 41 1019.1
20260901163809 95 256 3.5 5.2 0.00 0.00 0.00 43 1019.2
20260901163308 94 340 2.6 5.2 0.00 0.00 0.00 44 1019.1
20260901162803 95 174 6.1 7.8 0.00 0.00 0.00 43 1019.3
20260901162306 95 249 4.3 6.1 0.00 0.00 0.00 44 1019.0
20260901161803 94 30 1.7 1.7 0.00 0.00 0.00 45 1019.1
20260901161302 93 181 1.7 1.7 0.00 0.00 0.00 46 1019.2
20260901160758 92 221 2.6 2.6 0.00 0.00 0.00 47 1019.1
20260901160254 93 248 7.0 8.7 0.00 0.00 0.00 46 1019.1
20260901155753 92 330 1.7 1.7 0.00 0.00 0.00 46 1019.3
20260901155248 92 91 3.5 3.5 0.00 0.00 0.00 46 1019.2
20260901154743 92 213 5.2 7.0 0.00 0.00 0.00 47 1019.3
20260901154238 92 197 6.1 8.7 0.00 0.00 0.00 47 1019.2
20260901153733 92 161 4.3 6.1 0.00 0.00 0.00 47 1019.1
20260901153232 92 63 0.9 1.7 0.00 0.00 0.00 47 1019.0
20260901152732 91 130 3.5 6.1 0.00 0.00 0.00 47 1019.2
20260901152231 90 209 4.3 7.0 0.00 0.00 0.00 49 1019.2
20260901151727 90 217 0.9 0.9 0.00 0.00 0.00 50 1019.3
20260901151227 89 127 5.2 8.7 0.00 0.00 0.00 50 1019.3
20260901150726 90 198 2.6 3.5 0.00 0.00 0.00 49 1019.3
20260901150224 90 6 2.6 2.6 0.00 0.00 0.00 50 1019.3
20260901145722 90 145 7.8 11.3 0.00 0.00 0.00 49 1019.1
20260901145216 90 227 7.8 9.6 0.00 0.00 0.00 49 1019.4
20260901144712 89 254 2.6 3.5 0.00 0.00 0.00 50 1019.3
20260901144207 90 206 7.0 9.6 0.00 0.00 0.00 49 1019.2
20260901143702 89 201 1.7 2.6 0.00 0.00 0.00 50 1019.2
20260901143159 88 17 2.6 3.5 0.00 0.00 0.00 51 1019.3
20260901142655 87 182 7.8 9.6 0.00 0.00 0.00 51 1019.2
20260901142154 87 198 2.6 6.1 0.00 0.00 0.00 52 1019.2
20260901141649 87 210 7.0 8.7 0.00 0.00 0.00 52 1019.2
20260901141148 86 197 3.5 5.2 0.00 0.00 0.00 53 1019.2
20260901140647 86 331 0.9 0.9 0.00 0.00 0.00 54 1019.2
20260901140146 85 276 2.6 5.2 0.00 0.00 0.00 54 1019.4
20260901135641 85 183 3.5 3.5 0.00 0.00 0.00 55 1019.3
20260901135136 85 216 4.3 6.1 0.00 0.00 0.00 55 1019.4
20260901134632 85 19 0.9 1.7 0.00 0.00 0.00 55 1019.3
20260901134127 84 216 1.7 2.6 0.00 0.00 0.00 55 1019.2
20260901133626 84 128 6.1 7.0 0.00 0.00 0.00 55 1019.5
20260901133125 84 116 4.3 5.2 0.00 0.00 0.00 55 1019.4
20260901132620 84 85 2.6 2.6 0.00 0.00 0.00 55 1019.3
20260901132119 83 212 1.7 2.6 0.00 0.00 0.00 55 1019.2
20260901131619 83 219 1.7 3.5 0.00 0.00 0.00 56 1019.2
20260901131114 83 176 2.6 2.6 0.00 0.00 0.00 56 1019.0
20260901130609 82 349 1.7 2.6 0.00 0.00 0.00 56 1019.1
20260901130107 82 339 1.7 1.7 0.00 0.00 0.00 56 1019.0
20260901125607 82 195 2.6 2.6 0.00 0.00 0.00 56 1018.9
20260901125102 82 216 1.7 1.7 0.00 0.00 0.00 56 1019.0
20260901124601 82 187 2.6 3.5 0.00 0.00 0.00 56 1019.1
20260901124056 82 80 1.7 2.6 0.00 0.00 0.00 56 1018.9
20260901123551 82 204 3.5 5.2 0.00 0.00 0.00 56 1018.9
20260901123051 82 182 2.6 3.5 0.00 0.00 0.00 56 1018.8
20260901122549 82 180 1.7 2.6 0.00 0.00 0.00 56 1018.7
20260901122049 82 43 3.5 6.1 0.00 0.00 0.00 56 1018.6
20260901121549 82 303 3.5 5.2 0.00 0.00 0.00 55 1018.6
20260901121045 82 156 2.6 2.6 0.00 0.00 0.00 55 1018.7
20260901120544 82 335 2.6 3.5 0.00 0.00 0.00 55 1018.4
20260901120040 82 30 0.9 0.9 0.00 0.00 0.00 55 1018.5
20260901115535 82 48 0.9 0.9 0.00 0.00 0.00 55 1018.6
20260901115032 82 271 2.6 3.5 0.00 0.00 0.00 55 1018.4
20260901114528 82 192 2.6 2.6 0.00 0.00 0.00 55 1018.4
20260901114026 82 100 1.7 1.7 0.00 0.00 0.00 55 1018.4
20260901113525 82 200 2.6 2.6 0.00 0.00 0.00 55 1018.2
20260901113021 82 118 4.3 5.2 0.00 0.00 0.00 55 1018.2
20260901112516 82 183 2.6 3.5 0.00 0.00 0.00 54 1018.1
20260901112011 82 43 1.7 1.7 0.00 0.00 0.00 54 1018.1
20260901111509 82 135 1.7 1.7 0.00 0.00 0.00 54 1018.0
20260901111008 82 196 1.7 2.6 0.00 0.00 0.00 54 1017.8
20260901110504 82 48 0.9 1.7 0.00 0.00 0.00 54 1017.9
20260901105959 82 92 1.7 1.7 0.00 0.00 0.00 54 1017.8
20260901105455 82 224 1.7 2.6 0.00 0.00 0.00 54 1017.8
20260901104955 82 152 2.6 3.5 0.00 0.00 0.00 54 1017.9
20260901104451 82 86 2.6 3.5 0.00 0.00 0.00 54 1017.8
20260901103951 82 193 1.7 1.7 0.00 0.00 0.00 54 1017.6
20260901103446 82 177 2.6 2.6 0.00 0.00 0.00 55 1017.9
20260901102941 82 204 4.3 6.1 0.00 0.00 0.00 54 1017.6
20260901102436 82 121 3.5 3.5 0.00 0.00 0.00 55 1017.8
20260901101931 82 279 0.9 1.7 0.00 0.00 0.00 55 1017.6
20260901101426 82 105 3.5 6.1 0.00 0.00 0.00 55 1017.6
20260901100926 82 199 1.7 2.6 0.00 0.00 0.00 55 1017.6
20260901100420 82 86 1.7 1.7 0.00 0.00 0.00 55 1017.8
20260901095914 82 69 0.9 1.7 0.00 0.00 0.00 54 1017.6
20260901095413 82 265 1.7 1.7 0.00 0.00 0.00 54 1017.4
20260901094911 82 13 3.5 5.2 0.00 0.00 0.00 54 1017.4
20260901094406 82 136 4.3 7.8 0.00 0.00 0.00 54 1017.5
20260901093901 82 329 3.5 5.2 0.00 0.00 0.00 54 1017.5
20260901093400 82 8 0.9 1.7 0.00 0.00 0.00 55 1017.4
20260901092856 82 180 5.2 7.0 0.00 0.00 0.00 55 1017.3
20260901092356 82 115 3.5 3.5 0.00 0.00 0.00 55 1017.5
20260901091853 82 178 1.7 1.7 0.00 0.00 0.00 55 1017.2
20260901091352 81 161 4.3 5.2 0.00 0.00 0.00 55 1017.4
20260901090847 81 168 1.7 2.6 0.00 0.00 0.00 55 1017.2
20260901090342 81 40 1.7 1.7 0.00 0.00 0.00 55 1017.0
20260901085838 81 106 1.7 2.6 0.00 0.00 0.00 56 1017.1
20260901085333 81 216 2.6 3.5 0.00 0.00 0.00 56 1017.3
20260901084829 81 84 0.9 1.7 0.00 0.00 0.00 56 1017.3
20260901084325 81 37 0.9 1.7 0.00 0.00 0.00 56 1017.2
20260901083821 81 145 2.6 2.6 0.00 0.00 0.00 55 1017.1
20260901083320 81 49 0.0 0.9 0.00 0.00 0.00 55 1017.1
20260901082819 81 56 0.9 1.7 0.00 0.00 0.00 55 1017.1
20260901082314 81 38 1.7 1.7 0.00 0.00 0.00 55 1016.9
20260901081810 81 164 2.6 3.5 0.00 0.00 0.00 54 1017.1
20260901081309 81 72 3.5 5.2 0.00 0.00 0.00 54 1016.9
20260901080804 81 71 1.7 2.6 0.00 0.00 0.00 54 1017.0
20260901080305 81 196 4.3 5.2 0.00 0.00 0.00 54 1017.1
20260901075758 81 122 4.3 6.1 0.00 0.00 0.00 54 1016.9
20260901075254 81 138 2.6 3.5 0.00 0.00 0.00 54 1017.0
20260901074753 81 88 2.6 2.6 0.00 0.00 0.00 54 1016.8
20260901074248 81 39 1.7 2.6 0.00 0.00 0.00 53 1016.9
20260901073745 81 41 1.7 2.6 0.00 0.00 0.00 53 1017.0
20260901073240 82 41 1.7 2.6 0.00 0.00 0.00 53 1017.1
20260901072735 82 123 1.7 2.6 0.00 0.00 0.00 53 1017.0
20260901072230 82 84 3.5 5.2 0.00 0.00 0.00 52 1016.9
20260901071730 82 94 2.6 2.6 0.00 0.00 0.00 52 1016.9
20260901071230 82 73 0.9 0.9 0.00 0.00 0.00 52 1017.1
20260901070729 82 76 1.7 2.6 0.00 0.00 0.00 52 1017.2
20260901070225 82 58 1.7 1.7 0.00 0.00 0.00 52 1017.1
20260901065724 82 151 1.7 1.7 0.00 0.00 0.00 51 1017.1
20260901065219 82 221 2.6 2.6 0.00 0.00 0.00 51 1017.0
20260901064715 83 77 0.9 1.7 0.00 0.00 0.00 50 1016.9
20260901064212 83 187 3.5 3.5 0.00 0.00 0.00 50 1017.1
20260901063708 83 81 1.7 1.7 0.00 0.00 0.00 50 1017.0